CALIPSO (29108 NORAD) Tracking and Keplerian Element Data

This shows tracking and keplerian element data for the satellite.

Feedback or suggestion? Click here.




ElementValue
Catalog29108
NameCALIPSO
Epoch Orbit64996
Epoch Day198.89946826
Epoch Year2018
RAAN141.8804
Inclination98.2029
Eccentricity0.0001415
Argument of Perigee80.4749
Mean Anonmoly279.6609
Mean Motion14.57112058
Decay Rate8.2E-07
L11 29108U 06016B 18198.89946826 .00000082 00000-0 28165-4 0 9998
L22 29108 98.2029 141.8804 0001415 80.4749 279.6609 14.57112058649968

Live tracking and technical data element details for CALIPSO (NORAD 29108). CALIPSO can be tracked NOW for your location showing map with azimuth and elevation plus other details from your city location.

Track the satellite on the map from your city or location and see movement details for azimuth, elevation, latitude, longitude, range, height, and movement on the map or in text.







IsCatalogInMostPopularTable: catalog: 29108, numindb: 32
Update: records affected: 1



GetName: 29108 CALIPSO

Hit Count: updated at: Fri, 20 Jul 2018 20:29:45 GMT